Skip Navigation Links
NOAA logo - Click to go to the NOAA homepage
NOAA's National Weather Service
Alaska Aviation Weather Unit
  NWS logo - Click to go to the NWS homepage
Left Navbar Graphic     17 AKDT = 01 GMT

   
NOAA is celebrating 200 years of science, service, and stewardship. Visit the NOAA 200th celebration Web site to learn more.
USA.gov is the U.S. Government's official Web portal to all Federal, state and local government Web resources and services.
Facebook
NWS on Facebook

Important Change Regarding the AAWU Web Presence

 

Over the last several months, the AAWU has been working to navigate its webpages to a nationally supported server. Security, as well as other needs, have necessitated the change.  In the process, we have made an effort to enhance the functionality of our website, as well as some of our products. As of June 27, 2017, aawu.arh.noaa.gov will be discontinued. The new AAWU web address is weather.gov/aawu. It is now live and will run in-parallel with the old site until it is discontinued. Please send any feedback or questions regarding the new webpages to nws.ar.aawu.webauthors@noaa.gov.  Thank you for your patience during this time of transition.
AAWU Home :: Display TAF Add Bookmark
TAF PANC 252323Z 2600/2706 28008KT P6SM FEW060 BKN250
     FM260800 18004KT P6SM FEW060
     FM261900 28007KT P6SM FEW060 BKN100
     FM270000 25008KT P6SM VCSH BKN060
     FM270300 15015G25KT P6SM BKN080=

METAR PANC 251953Z 33005KT 10SM FEW040 FEW060 BKN250 16/11 A2998= METAR PANC 252053Z 30007KT 10SM FEW040 FEW060 BKN250 16/11 A2998= METAR PANC 252153Z 31006KT 10SM FEW040 FEW060 BKN250 17/11 A2996= METAR PANC 252253Z 30007KT 10SM FEW050 SCT160 BKN250 18/12 A2995= METAR PANC 252353Z 30006KT 10SM FEW050 SCT160 BKN250 18/11 A2994= METAR PANC 260053Z VRB06KT 10SM FEW050 SCT160 BKN250 19/12 A2993=
 Alaska TAF Map

NOAA's National Weather Service
Alaska Aviation Weather Unit
6930 Sand Lake Road
Anchorage, AK 99502-1845
Disclaimer
Credits
Glossary
Privacy Policy
About Us
Career Opportunities
Contact AAWU Internet Services Site last modified: April, 17th 2012